SXM-9

Last updated on Sat Dec 13 2025 00:02:51 GMT+0000 (Coordinated Universal Time)

1 62259U 24234A 25346.25946568 -.00000195 00000+0 00000+0 0 9998 2 62259 0.0125 338.5024 0004056 328.1897 142.7686 1.00268692 3700
UTC large
Height (km)
Speed (km/s)
/
Latitude / Longitude
Inclination (degrees)
Orbital Period (minutes)
Azimuth
Elevation
Range (km)
Doppler Factor

Next 0 passes for location: London (51.5072 / 0.1276)

Sorry there are no passes over London.